Location: Bruderhein
(53.8035°N, 112.9265°W)
Time: 02:37:38
(UTC+00:00)

BEESAT - Pass Details

Date: 05 April 2023
Orbit: 696 x 706 km, 98.5° (Epoch: 31 May)

Event Time Altitude Azimuth Distance (km) Brightness Sun altitude
Rises 04:47:03 0° 16° (NNE) 3,114 ? -20.7°
Reaches altitude 10° 04:49:20 10° 19° (NNE) 2,189 ? -20.9°
Maximum altitude 04:54:07 73° 104° (ESE) 743 ? -21.4°
Enters shadow 04:55:25 48° 174° (S) 925 ? -21.5°
